15min,AgWx,beryljct,423,23OCT2021:00:00:00,43.2,12.8,40.8,40.3,39.8,40.6,38.8,49,53,46,0.399,22.2,23.3,21.6,0.811,1.6,303,45,4.5,-0.00010,-0.00011,45.3,48.3,21,0,0,.,15.03,0.00,0.00
15min,AgWx,beryljct,423,23OCT2021:00:15:00,41.9,12.81,40.0,39.4,40.1,40.7,38.9,47,51,44,0.409,21.5,22.5,20.7,1.03,2.8,310,14,4.7,0.00001,0.00003,45.2,48.3,21,0,0,.,15.03,0.00,0.00
15min,AgWx,beryljct,423,23OCT2021:00:30:00,40.8,12.79,39.7,39.0,39.3,40.5,38.0,50,55,46,0.413,22.2,23.2,21.2,1.951,0.6,196,34,3.7,-0.00021,-0.00031,45.1,48.2,20,0,0,.,15.03,0.00,0.00
15min,AgWx,beryljct,423,23OCT2021:00:45:00,40.1,12.78,42.9,42.3,40.4,42.4,37.8,49,55,43,0.426,22.8,24.1,21.2,3.135,2.5,246,14,3.2,-0.00002,0.00000,44.9,48.2,20,0,0,.,15.03,0.00,0.00
15min,AgWx,beryljct,423,23OCT2021:01:00:00,39.9,12.77,36.5,36.6,40.9,45.5,36.5,52,66,39,0.486,24.5,26.4,22.2,3.88,3.9,226,13,5.0,0.00007,0.00011,44.8,48.2,21,0,0,.,15.03,0.00,0.00
15min,AgWx,beryljct,423,23OCT2021:01:15:00,39.9,12.77,47.3,46.2,41.4,46.2,36.6,56,66,45,0.480,26.7,27.3,26.1,5.809,5.2,197,9.5,6.7,0.00011,0.00016,44.7,48.2,21,0,0,.,15.03,0.00,0.00
15min,AgWx,beryljct,423,23OCT2021:01:30:00,41.1,12.77,46.8,44.7,46.2,47.6,44.0,47,54,42,0.514,26.8,28.4,25.8,4.099,4.7,193,11,6.5,0.00015,0.00022,44.5,48.1,21,0,0,.,15.03,0.00,0.00
15min,AgWx,beryljct,423,23OCT2021:01:45:00,42.0,12.77,48.3,46.3,44.9,46.3,43.9,50,54,46,0.488,27.6,28.3,26.5,4.735,4.0,196,8.7,5.1,0.00008,0.00014,44.4,48.1,21,0,0,.,15.03,0.00,0.00
15min,AgWx,beryljct,423,23OCT2021:02:00:00,43.2,12.75,48.8,48.7,48.2,48.7,46.5,40,45,39,0.452,25.2,26.3,24.7,3.595,4.6,174,7.8,6.1,0.00019,0.00028,44.3,48.1,21,0,0,.,15.03,0.00,0.00
15min,AgWx,beryljct,423,23OCT2021:02:15:00,44.1,12.74,48.7,48.4,47.3,48.8,45.1,42,49,39,0.451,25.5,27.0,24.6,3.464,3.4,181,16,4.3,0.00009,0.00015,44.2,48.0,21,0,0,.,15.03,0.00,0.00
15min,AgWx,beryljct,423,23OCT2021:02:30:00,44.6,12.74,46.0,45.9,48.0,48.8,45.9,40,46,38,0.484,25.0,26.3,24.4,2.17,3.8,149,9.1,4.9,0.00013,0.00021,44.1,48.0,20,0,0,.,15.03,0.00,0.00
15min,AgWx,beryljct,423,23OCT2021:02:45:00,44.8,12.74,47.4,46.8,45.8,46.8,44.7,46,49,43,0.465,26.0,26.9,25.3,2.192,2.4,197,22,3.8,-0.00002,0.00001,44.1,47.9,21,0,0,.,15.03,0.00,0.00
15min,AgWx,beryljct,423,23OCT2021:03:00:00,45.0,12.74,48.6,48.5,47.9,48.6,46.9,41,43,40,0.466,25.2,25.5,25.0,3.529,2.0,163,34,3.6,-0.00006,-0.00004,44.0,47.9,21,0,0,.,15.03,0.00,0.00
15min,AgWx,beryljct,423,23OCT2021:03:15:00,45.4,12.73,48.6,48.6,48.1,48.6,47.7,41,42,40,0.465,25.5,25.7,25.3,0,0.9,132,3.0,3.6,-0.00020,-0.00027,44.0,47.8,20,0,0,.,15.03,0.00,0.00
15min,AgWx,beryljct,423,23OCT2021:03:30:00,45.5,12.72,49.5,49.2,49.0,49.3,48.6,39,40,39,0.470,25.4,25.7,25.3,0.504,0.5,95,17,1.7,-0.00028,-0.00041,43.9,47.8,21,0,0,.,15.03,0.00,0.00
15min,AgWx,beryljct,423,23OCT2021:03:45:00,45.7,12.71,48.9,47.6,48.2,49.5,46.9,43,48,39,0.510,26.8,28.4,25.5,3.354,2.7,47,19,4.1,0.00002,0.00006,43.9,47.7,21,0,0,.,15.03,0.00,0.00
15min,AgWx,beryljct,423,23OCT2021:04:00:00,45.9,12.7,48.2,48.0,47.8,48.5,46.7,46,50,43,0.513,27.8,29.4,26.9,2.28,2.5,59,30,3.8,-0.00001,0.00002,43.9,47.7,21,0,0,.,15.02,0.00,0.00
15min,AgWx,beryljct,423,23OCT2021:04:15:00,46.1,12.7,46.4,46.7,46.9,48.4,45.6,50,55,44,0.546,29.1,30.4,27.4,0.921,1.4,27,16,3.4,-0.00014,-0.00017,43.9,47.7,21,0,0,.,15.03,0.00,0.00
15min,AgWx,beryljct,423,23OCT2021:04:30:00,46.0,12.69,51.5,50.7,47.7,50.7,46.1,47,53,38,0.478,28.3,30.1,25.8,5.897,2.4,210,81,9.0,-0.00002,-0.00000,43.8,47.6,21,0,0,.,15.03,0.00,0.00
15min,AgWx,beryljct,423,23OCT2021:04:45:00,46.9,12.68,51.3,50.4,50.8,51.5,49.8,39,42,37,0.490,26.7,27.9,25.7,6.927,6.8,154,8.4,9.7,0.00035,0.00047,43.8,47.6,21,0,0,.,15.02,0.00,0.00
15min,AgWx,beryljct,423,23OCT2021:05:00:00,47.7,12.68,52.0,52.8,51.3,53.2,49.9,37,41,32,0.453,25.6,27.2,23.8,4.735,7.3,159,18,12.8,0.00040,0.00052,43.8,47.5,21,0,0,.,15.02,0.00,0.00
15min,AgWx,beryljct,423,23OCT2021:05:15:00,48.3,12.67,51.2,50.8,51.9,53.0,50.6,35,37,32,0.450,24.8,25.7,23.9,3.902,4.3,193,26,6.9,0.00022,0.00033,43.8,47.5,21,0,0,.,15.02,0.00,0.00
15min,AgWx,beryljct,423,23OCT2021:05:30:00,48.1,12.66,50.0,50.4,50.9,52.6,48.6,35,40,31,0.435,24.0,25.5,23.1,2.587,3.1,231,23,4.3,0.00010,0.00018,43.8,47.5,21,0,0,.,15.02,0.00,0.00
15min,AgWx,beryljct,423,23OCT2021:05:45:00,47.2,12.65,42.3,48.1,47.3,51.0,44.6,44,51,34,0.478,26.2,27.8,23.9,1.228,1.2,255,44,3.0,-0.00015,-0.00019,43.8,47.4,21,0,0,.,15.02,0.00,0.00
15min,AgWx,beryljct,423,23OCT2021:06:00:00,46.2,12.63,43.4,42.4,44.7,47.6,42.4,51,57,43,0.492,27.6,29.1,26.4,2.368,1.2,344,59,3.2,-0.00016,-0.00020,43.8,47.4,21,0,0,.,15.02,0.00,0.00
15min,AgWx,beryljct,423,23OCT2021:06:15:00,45.5,12.62,44.8,44.4,43.6,45.9,41.9,53,60,47,0.535,27.6,29.7,25.7,0.658,2.2,25,63,4.4,0.00023,0.00040,43.7,47.4,20,0,0,.,15.02,0.00,0.00
15min,AgWx,beryljct,423,23OCT2021:06:30:00,45.2,12.63,49.0,47.7,47.7,49.8,44.3,43,54,37,0.479,26.2,28.6,24.8,0,1.4,11,75,4.1,0.00019,0.00034,43.7,47.3,21,0,0,.,15.02,0.00,0.00
15min,AgWx,beryljct,423,23OCT2021:06:45:00,45.2,12.62,45.7,46.7,46.9,49.0,45.7,47,51,40,0.526,27.6,28.6,25.5,0,0.9,131,21,7.1,0.00012,0.00021,43.7,47.3,21,0,0,.,15.02,0.00,0.00
15min,AgWx,beryljct,423,23OCT2021:07:00:00,45.2,12.62,47.1,49.4,47.2,49.4,46.0,46,50,39,0.462,27.2,28.5,25.2,1.885,1.5,329,61,3.0,0.00021,0.00035,43.6,47.3,21,3,0,.,15.02,0.00,0.00
15min,AgWx,beryljct,423,23OCT2021:07:15:00,45.6,12.62,50.7,50.5,49.7,50.5,48.1,39,44,36,0.464,25.9,27.9,24.7,0,2.7,96,15,4.3,0.00045,0.00075,43.6,47.2,21,10,0,.,15.02,0.00,0.00
15min,AgWx,beryljct,423,23OCT2021:07:30:00,46.2,12.66,51.7,51.3,50.2,51.3,49.2,39,43,35,0.459,26.4,27.5,24.9,0,1.7,78,31,3.5,0.00042,0.00062,43.6,47.2,21,27,0,.,15.02,0.00,0.00
15min,AgWx,beryljct,423,23OCT2021:07:45:00,46.8,12.66,49.1,49.1,49.4,51.3,48.2,43,48,36,0.522,28.0,29.7,25.1,2.916,2.1,357,44,4.3,0.00055,0.00078,43.6,47.2,21,47,0,.,15.02,0.00,0.00
15min,AgWx,beryljct,423,23OCT2021:08:00:00,47.5,12.69,49.4,50.4,50.1,51.2,49.1,43,46,39,0.528,28.2,30.0,26.9,3.88,3.1,329,75,5.7,0.00069,0.00102,43.6,47.1,21,50,0,.,15.02,0.00,0.00
15min,AgWx,beryljct,423,23OCT2021:08:15:00,48.3,12.68,53.5,52.7,50.9,52.7,49.1,42,52,36,0.497,28.4,32.2,25.9,10.02,4.0,289,44,11.3,0.00081,0.00123,43.6,47.1,21,53,0,.,15.02,0.00,0.00
15min,AgWx,beryljct,423,23OCT2021:08:30:00,49.9,12.75,53.7,53.9,53.4,53.9,52.7,36,39,34,0.481,27.3,28.6,26.2,7.497,9.9,237,12,15.3,0.00165,0.00262,43.6,47.1,21,81,0,.,15.02,0.00,0.00
15min,AgWx,beryljct,423,23OCT2021:08:45:00,51.3,12.79,54.2,54.2,54.0,54.3,53.7,35,37,33,0.483,26.8,28.1,25.6,6.905,8.1,233,9.8,12.5,0.00155,0.00243,43.6,47.1,21,86,0,.,15.02,0.00,0.00
15min,AgWx,beryljct,423,23OCT2021:09:00:00,52.2,12.82,54.1,53.8,53.8,54.2,53.6,37,38,34,0.531,28.0,29.0,26.4,6.84,6.8,225,10,9.7,0.00146,0.00221,43.7,47.1,21,101,0,.,15.02,0.00,0.00
15min,AgWx,beryljct,423,23OCT2021:09:15:00,53.1,12.9,54.5,54.4,54.2,54.5,53.8,37,39,36,0.536,28.7,29.9,27.4,7.366,5.6,203,11,8.6,0.00153,0.00219,43.8,47.1,21,140,0,.,15.01,0.00,0.00
15min,AgWx,beryljct,423,23OCT2021:09:30:00,53.9,13,55.2,55.0,54.8,55.0,54.4,37,39,35,0.521,28.7,30.5,27.3,9.43,7.4,190,11,10.5,0.00182,0.00265,43.8,47.0,21,159,0,.,15.01,0.00,0.00
15min,AgWx,beryljct,423,23OCT2021:09:45:00,54.7,13.32,55.8,55.5,55.2,55.6,55.0,37,39,34,0.541,29.2,30.3,27.5,14.4,10.2,193,10,14.4,0.00225,0.00331,43.9,47.0,21,213,0,.,15.01,0.00,0.00
15min,AgWx,beryljct,423,23OCT2021:10:00:00,55.7,14.36,56.6,56.8,56.1,56.9,55.6,38,40,35,0.589,30.6,32.1,28.6,17.12,11.5,195,9.3,19.1,0.00281,0.00398,44.1,47.0,21,340,0,.,15.01,0.00,0.00
15min,AgWx,beryljct,423,23OCT2021:10:15:00,57.1,14.34,57.7,57.3,56.9,57.3,56.6,39,40,37,0.620,32.2,32.9,30.9,11.47,12.7,193,9.1,18.2,0.00311,0.00438,44.2,46.9,21,402,0,.,15.01,0.00,0.00
15min,AgWx,beryljct,423,23OCT2021:10:30:00,58.3,14.27,57.7,57.8,57.4,58.0,56.9,41,43,39,0.698,34.0,35.3,32.5,8.94,12.8,193,9.4,18.4,0.00325,0.00450,44.3,46.9,21,445,0,.,15.01,0.00,0.00
15min,AgWx,beryljct,423,23OCT2021:10:45:00,59.2,14.33,59.1,58.1,58.1,58.4,57.7,42,43,41,0.688,35.0,35.8,34.3,14.45,13.0,194,9.9,20.3,0.00362,0.00489,44.5,46.9,21,539,0,.,15.01,0.00,0.00
15min,AgWx,beryljct,423,23OCT2021:11:00:00,60.1,14.3,57.2,57.4,58.5,59.5,57.4,41,43,40,0.665,34.9,36.6,33.8,14.97,14.5,192,13,22.0,0.00354,0.00491,44.7,46.9,21,484,0,.,15.01,0.00,0.00
15min,AgWx,beryljct,423,23OCT2021:11:15:00,60.7,14.21,59.2,59.9,59.2,60.3,57.4,40,42,38,0.666,34.6,36.1,33.6,15.87,13.9,196,9.7,18.0,0.00418,0.00561,45.0,46.9,21,650,0,.,15.00,0.00,0.00
15min,AgWx,beryljct,423,23OCT2021:11:30:00,61.4,14.23,59.2,58.8,59.1,60.0,58.6,39,40,37,0.657,34.0,35.0,33.3,14.97,14.4,185,12,20.7,0.00338,0.00481,45.2,46.9,21,403,0,.,15.01,0.00,0.00
15min,AgWx,beryljct,423,23OCT2021:11:45:00,61.6,14.31,61.5,60.4,59.7,60.5,58.6,39,41,36,0.664,34.6,35.7,33.4,15.41,14.2,194,11,19.2,0.00424,0.00572,45.5,46.9,21,651,0,.,15.00,0.00,0.00
15min,AgWx,beryljct,423,23OCT2021:12:00:00,62.5,14.21,60.3,60.7,60.7,61.2,60.1,36,38,35,0.642,33.9,35.4,32.6,16.53,15.7,183,12,21.3,0.00460,0.00625,45.8,46.9,21,687,0,.,15.00,0.00,0.00
15min,AgWx,beryljct,423,23OCT2021:12:15:00,63.3,13.82,61.1,61.7,61.1,61.7,60.5,36,37,35,0.671,33.8,34.9,32.7,18.02,14.5,185,13,18.8,0.00462,0.00624,46.0,47.0,21,691,0,.,15.00,0.00,0.00
15min,AgWx,beryljct,423,23OCT2021:12:30:00,63.9,13.75,60.0,60.7,61.2,61.8,60.6,36,39,34,0.670,34.4,35.8,32.8,14.38,13.1,198,14,20.0,0.00457,0.00609,46.4,47.0,21,691,0,.,15.00,0.00,0.00
15min,AgWx,beryljct,423,23OCT2021:12:45:00,64.2,13.79,61.5,61.1,61.2,61.7,60.7,37,39,36,0.687,34.9,36.4,33.6,14.12,13.6,200,15,20.2,0.00433,0.00584,46.7,47.0,21,643,0,.,15.00,0.00,0.00
15min,AgWx,beryljct,423,23OCT2021:13:00:00,64.5,13.8,61.2,61.5,61.5,62.0,61.0,37,38,35,0.677,34.7,35.9,33.6,17.1,14.9,185,15,20.0,0.00458,0.00621,47.0,47.0,21,675,0,.,15.01,0.00,0.00
15min,AgWx,beryljct,423,23OCT2021:13:15:00,64.8,13.77,61.2,62.0,61.5,62.3,61.0,37,38,35,0.675,34.7,35.6,33.7,15.85,14.4,199,11,20.3,0.00448,0.00608,47.4,47.1,21,660,0,.,15.01,0.00,0.00
15min,AgWx,beryljct,423,23OCT2021:13:30:00,64.9,13.75,61.1,62.0,61.7,62.9,60.9,36,38,34,0.651,34.3,36.7,33.2,13.35,13.8,192,12,20.2,0.00434,0.00592,47.7,47.1,21,625,0,.,15.00,0.00,0.00
15min,AgWx,beryljct,423,23OCT2021:13:45:00,65.3,13.74,61.5,61.6,61.9,62.7,61.3,34,36,34,0.633,33.5,34.9,32.6,13.33,14.7,189,9.2,20.5,0.00443,0.00610,48.1,47.1,21,626,0,.,15.00,0.00,0.00
15min,AgWx,beryljct,423,23OCT2021:14:00:00,65.4,13.77,60.2,60.7,61.5,62.8,60.6,35,38,34,0.643,33.8,35.6,32.8,13.88,12.5,207,15,17.8,0.00350,0.00494,48.4,47.2,20,459,0,.,15.00,0.00,0.00
15min,AgWx,beryljct,423,23OCT2021:14:15:00,64.6,13.78,61.5,62.0,60.7,62.5,60.2,35,38,32,0.641,33.3,34.9,32.1,9.54,11.1,203,18,16.1,0.00302,0.00431,48.7,47.3,21,376,0,.,15.00,0.00,0.00
15min,AgWx,beryljct,423,23OCT2021:14:30:00,64.1,13.82,60.2,60.3,60.7,61.9,60.3,36,39,34,0.643,33.6,35.7,32.2,9.27,10.6,212,14,15.3,0.00252,0.00374,48.9,47.3,20,256,0,.,15.00,0.00,0.00
15min,AgWx,beryljct,423,23OCT2021:14:45:00,63.9,13.8,60.6,60.7,61.1,61.7,60.3,36,39,34,0.655,34.2,36.2,32.7,15.61,11.5,201,11,20.8,0.00287,0.00417,49.2,47.4,20,363,0,.,15.00,0.00,0.00
15min,AgWx,beryljct,423,23OCT2021:15:00:00,63.5,13.81,61.0,60.8,60.4,60.8,59.9,37,39,35,0.657,33.8,35.2,33.0,13.28,11.8,197,11,16.2,0.00239,0.00367,49.3,47.5,20,233,0,.,15.00,0.00,0.00
15min,AgWx,beryljct,423,23OCT2021:15:15:00,63.3,13.8,61.2,61.0,60.9,61.7,60.3,36,37,35,0.651,33.8,35.1,33.0,13.46,12.3,204,10,18.3,0.00269,0.00405,49.5,47.5,20,313,0,.,15.00,0.00,0.00
15min,AgWx,beryljct,423,23OCT2021:15:30:00,63.5,13.78,60.3,60.6,61.2,61.7,60.6,34,36,33,0.626,32.7,34.0,32.0,14.93,15.2,188,9.3,19.5,0.00332,0.00494,49.6,47.6,20,387,0,.,15.01,0.00,0.00
15min,AgWx,beryljct,423,23OCT2021:15:45:00,63.8,13.82,62.6,61.9,61.1,61.9,60.1,35,36,33,0.651,33.1,34.6,32.5,14.64,13.6,186,14,18.3,0.00331,0.00481,49.7,47.7,20,415,0,.,15.00,0.00,0.00
15min,AgWx,beryljct,423,23OCT2021:16:00:00,64.6,13.74,61.7,61.5,61.9,62.2,61.5,34,35,33,0.661,33.3,34.5,32.2,9.71,12.7,188,11,18.3,0.00308,0.00454,49.8,47.8,20,366,0,.,15.00,0.00,0.00
15min,AgWx,beryljct,423,23OCT2021:16:15:00,64.7,13.77,60.7,60.7,61.2,61.8,60.6,36,37,34,0.656,34.1,35.3,33.2,10.85,11.8,201,12,19.3,0.00256,0.00387,49.9,47.9,20,295,0,.,15.00,0.00,0.00
15min,AgWx,beryljct,423,23OCT2021:16:30:00,64.3,13.78,60.7,60.6,60.9,61.3,60.3,35,37,34,0.652,33.4,34.2,32.6,15.7,13.9,186,11,18.9,0.00252,0.00397,49.9,48.0,20,249,0,.,15.00,0.00,0.00
15min,AgWx,beryljct,423,23OCT2021:16:45:00,63.6,13.82,60.2,60.2,60.4,60.6,60.1,36,37,35,0.660,33.5,34.1,32.9,13.5,14.8,180,9.5,18.6,0.00234,0.00382,50.0,48.0,20,202,0,.,15.01,0.00,0.00
15min,AgWx,beryljct,423,23OCT2021:17:00:00,62.9,13.77,59.3,59.5,59.7,60.2,59.3,38,39,37,0.648,33.9,34.6,33.2,14.89,13.3,194,9.0,18.6,0.00095,0.00113,50.0,48.1,20,146,0,.,15.00,0.00,0.00
15min,AgWx,beryljct,423,23OCT2021:17:15:00,61.9,13.84,58.2,58.3,58.8,59.4,58.3,38,39,37,0.628,33.1,33.6,32.7,11.44,13.3,193,8.4,18.4,0.00087,0.00104,50.1,48.2,21,101,0,.,15.01,0.00,0.00
15min,AgWx,beryljct,423,23OCT2021:17:30:00,60.6,13.14,57.0,57.3,57.9,58.4,57.3,38,39,38,0.611,32.5,33.1,32.0,11.49,12.5,192,7.4,15.7,0.00074,0.00090,50.0,48.3,20,38,0,.,15.00,0.00,0.00
15min,AgWx,beryljct,423,23OCT2021:17:45:00,59.2,13.03,55.8,56.2,56.7,57.4,56.2,39,40,38,0.621,32.2,32.6,31.9,8.99,12.5,200,8.0,17.2,0.00067,0.00081,50.0,48.3,20,8,0,.,15.01,0.00,0.00
15min,AgWx,beryljct,423,23OCT2021:18:00:00,57.8,13,55.4,55.5,55.6,56.1,55.1,41,42,40,0.624,32.4,32.8,32.0,10.43,9.8,205,6.2,14.3,0.00052,0.00066,49.9,48.4,21,2,0,.,15.01,0.00,0.00
15min,AgWx,beryljct,423,23OCT2021:18:15:00,56.7,12.98,54.5,54.7,55.0,55.5,54.7,42,43,41,0.628,32.5,32.8,32.1,7.344,9.2,207,6.3,12.6,0.00048,0.00061,49.8,48.5,21,0,0,.,15.01,0.00,0.00
15min,AgWx,beryljct,423,23OCT2021:18:30:00,55.7,12.97,53.7,53.3,53.9,54.7,53.2,45,46,43,0.638,32.9,33.2,32.7,7.695,7.0,205,6.4,8.8,0.00034,0.00046,49.7,48.5,21,0,0,.,15.01,0.00,0.00
15min,AgWx,beryljct,423,23OCT2021:18:45:00,54.7,12.96,54.3,54.1,53.6,54.2,53.2,46,46,45,0.640,33.2,33.4,33.0,9.67,8.5,205,7.0,12.8,0.00039,0.00051,49.5,48.6,20,0,0,.,15.01,0.00,0.00
15min,AgWx,beryljct,423,23OCT2021:19:00:00,54.4,12.94,52.9,53.0,53.8,54.4,52.9,45,47,44,0.642,33.1,33.3,32.8,7.497,8.4,202,4.9,14.1,0.00040,0.00052,49.4,48.7,20,0,0,.,15.01,0.00,0.00
15min,AgWx,beryljct,423,23OCT2021:19:15:00,53.8,12.93,53.1,53.0,52.8,53.0,52.5,48,48,47,0.648,33.4,33.7,33.2,5.963,7.8,204,4.0,9.2,0.00034,0.00045,49.2,48.7,20,0,0,.,15.01,0.00,0.00
15min,AgWx,beryljct,423,23OCT2021:19:30:00,53.1,12.93,49.6,49.2,52.2,53.1,49.2,48,53,47,0.627,33.2,33.6,32.4,1.535,4.2,188,71,6.9,0.00014,0.00022,49.1,48.8,20,0,0,.,15.01,0.00,0.00
15min,AgWx,beryljct,423,23OCT2021:19:45:00,52.0,12.92,50.3,48.7,49.7,50.8,48.7,52,55,50,0.645,32.9,33.4,32.4,4.757,4.3,43,36,8.3,0.00010,0.00017,48.9,48.8,21,0,0,.,15.02,0.00,0.00
15min,AgWx,beryljct,423,23OCT2021:20:00:00,51.2,12.92,47.8,50.7,50.7,52.2,48.8,51,55,47,0.651,33.1,33.6,32.6,2.959,3.6,17,60,6.3,0.00007,0.00013,48.8,48.9,20,0,0,.,15.02,0.00,0.00
15min,AgWx,beryljct,423,23OCT2021:20:15:00,50.7,12.9,46.4,45.9,48.5,50.4,45.8,56,63,52,0.661,33.6,34.0,33.2,0.438,2.5,309,54,4.6,-0.00004,-0.00002,48.6,48.9,21,0,0,.,15.02,0.00,0.00
15min,AgWx,beryljct,423,23OCT2021:20:30:00,49.7,12.9,44.0,44.3,46.1,47.1,44.0,62,68,59,0.663,33.7,34.2,33.3,3.201,2.6,357,71,4.6,-0.00006,-0.00006,48.5,48.9,20,0,0,.,15.02,0.00,0.00
15min,AgWx,beryljct,423,23OCT2021:20:45:00,48.6,12.9,45.2,45.6,46.4,48.2,44.3,62,67,56,0.693,34.3,35.3,33.4,1.513,2.6,15,61,5.3,-0.00005,-0.00005,48.3,48.9,20,0,0,.,15.02,0.00,0.00
15min,AgWx,beryljct,423,23OCT2021:21:00:00,47.5,12.89,47.0,46.4,45.7,46.5,44.3,66,67,64,0.717,35.1,36.0,33.7,1.973,2.2,298,26,3.8,-0.00010,-0.00011,48.2,49.0,20,0,0,.,15.02,0.00,0.00
15min,AgWx,beryljct,423,23OCT2021:21:15:00,46.7,12.87,46.7,45.9,45.7,46.4,44.5,68,72,66,0.752,35.8,37.2,34.2,2.126,2.1,318,19,3.3,-0.00012,-0.00014,48.0,49.0,21,0,0,.,15.02,0.00,0.00
15min,AgWx,beryljct,423,23OCT2021:21:30:00,45.9,12.87,45.8,44.8,44.9,46.0,43.5,73,76,69,0.757,36.7,37.5,35.1,2.653,2.0,307,9.5,3.3,-0.00013,-0.00016,47.9,49.0,21,0,0,.,15.03,0.00,0.00
15min,AgWx,beryljct,423,23OCT2021:21:45:00,45.4,12.87,46.9,45.6,45.1,46.3,42.5,74,79,69,0.781,37.2,38.3,33.5,0,1.4,287,27,2.9,-0.00018,-0.00024,47.7,49.0,21,0,0,.,15.03,0.00,0.00
15min,AgWx,beryljct,423,23OCT2021:22:00:00,45.1,12.85,43.9,45.6,45.0,46.3,43.5,74,78,71,0.765,37.3,38.2,35.9,0.943,1.3,297,7.8,3.4,-0.00019,-0.00025,47.6,49.0,20,0,0,.,15.03,0.00,0.00
15min,AgWx,beryljct,423,23OCT2021:22:15:00,44.9,12.85,41.1,43.6,44.7,45.6,43.6,74,77,71,0.684,36.9,37.9,34.8,2.959,2.8,309,12,4.8,-0.00009,-0.00010,47.4,49.0,20,0,0,.,15.03,0.00,0.00
15min,AgWx,beryljct,423,23OCT2021:22:30:00,44.3,12.84,40.7,40.5,41.4,43.5,40.5,79,84,71,0.715,35.5,36.6,34.6,6.708,5.7,315,4.0,6.8,-0.00001,0.00000,47.3,49.0,20,0,0,.,15.03,0.00,0.00
15min,AgWx,beryljct,423,23OCT2021:22:45:00,43.5,12.84,40.3,40.2,40.2,40.6,39.8,84,85,84,0.717,35.8,36.2,35.3,6.73,6.6,311,7.3,7.7,-0.00002,-0.00001,47.1,49.0,20,0,0,.,15.03,0.00,0.00
15min,AgWx,beryljct,423,23OCT2021:23:00:00,43.0,12.82,41.4,41.0,40.6,41.3,40.0,86,87,85,0.758,36.8,37.7,35.9,6.182,6.2,295,4.5,7.5,-0.00004,-0.00003,47.0,49.0,20,0,0,.,15.03,0.00,0.00
15min,AgWx,beryljct,423,23OCT2021:23:15:00,43.1,12.83,41.9,42.1,41.7,42.2,41.1,87,88,86,0.793,38.2,38.7,37.5,3.858,5.5,300,6.1,6.7,-0.00006,-0.00006,46.9,49.0,20,0,0,.,15.03,0.00,0.00
15min,AgWx,beryljct,423,23OCT2021:23:30:00,43.4,12.81,42.1,42.0,41.8,42.2,41.5,88,89,87,0.798,38.6,39.0,38.3,3.508,4.4,314,8.6,6.2,-0.00009,-0.00010,46.7,48.9,20,0,0,.,15.03,0.00,0.00
15min,AgWx,bigpiney,439,23OCT2021:00:00:00,31.9,12.74,32.2,32.4,31.9,32.4,30.7,81,85,79,0.492,26.8,27.5,26.5,1.315,3.6,278,7.3,5.4,0.00005,0.00007,-151.0,.,.,0,0,0.0,6.36,0.00,0.00
15min,AgWx,bigpiney,439,23OCT2021:00:15:00,32.0,12.74,28.7,28.6,29.6,32.3,28.5,84,86,79,0.455,25.3,26.6,24.8,2.718,1.7,189,30,3.3,0.00001,0.00002,-157.7,.,.,0,0,0.0,6.36,0.00,0.00
15min,AgWx,bigpiney,439,23OCT2021:00:30:00,31.9,12.74,29.4,29.3,29.1,29.4,28.6,85,85,83,0.459,25.0,25.4,24.6,0.855,2.6,232,19,3.9,0.00002,0.00003,-151.0,.,.,0,0,0.0,6.36,0.00,0.00
15min,AgWx,bigpiney,439,23OCT2021:00:45:00,31.9,12.73,29.5,29.6,29.6,30.6,29.1,83,84,80,0.451,25.0,26.1,24.6,3.836,2.1,213,25,4.5,0.00002,0.00003,-151.0,.,.,0,0,0.0,6.36,0.00,0.00
15min,AgWx,bigpiney,439,23OCT2021:01:00:00,31.8,12.73,30.0,30.3,29.4,30.5,29.1,84,85,82,0.467,25.1,26.1,24.5,2.126,3.0,238,7.0,4.0,0.00003,0.00004,-151.0,.,.,0,0,0.0,6.36,0.00,0.00
15min,AgWx,bigpiney,439,23OCT2021:01:15:00,31.9,12.72,32.8,32.3,31.8,32.4,30.1,81,83,78,0.501,26.5,27.2,25.3,3.003,2.3,308,20,3.0,0.00003,0.00005,-151.0,.,.,0,0,0.0,6.36,0.00,0.00
15min,AgWx,bigpiney,439,23OCT2021:01:30:00,32.1,12.72,33.0,33.2,32.7,33.2,32.3,80,81,78,0.502,27.2,27.3,27.0,0,1.4,281,13,3.3,0.00001,0.00002,-157.7,.,.,0,0,0.0,6.36,0.00,0.00
15min,AgWx,bigpiney,439,23OCT2021:01:45:00,32.4,12.72,33.3,33.2,33.0,33.4,32.5,79,80,78,0.503,27.2,27.6,26.7,3.288,1.1,322,4.0,3.3,0.00000,0.00001,-157.7,.,.,0,0,0.0,6.36,0.00,0.00
15min,AgWx,bigpiney,439,23OCT2021:02:00:00,32.6,12.71,33.2,32.8,32.7,33.2,32.5,80,81,78,0.511,27.4,27.7,26.8,2.302,2.4,325,9.5,4.4,0.00003,0.00005,-151.0,.,.,0,0,0.0,6.36,0.00,0.00
15min,AgWx,bigpiney,439,23OCT2021:02:15:00,32.9,12.71,34.8,34.4,33.4,34.4,32.9,80,81,78,0.526,28.0,28.4,27.7,2.631,2.5,302,7.9,3.5,0.00004,0.00005,-151.0,.,.,0,0,0.0,6.36,0.00,0.00
15min,AgWx,bigpiney,439,23OCT2021:02:30:00,33.2,12.71,34.5,34.6,34.5,34.7,34.2,78,79,77,0.520,28.3,28.5,28.0,3.31,2.1,280,12,3.9,0.00004,0.00006,-151.0,.,.,0,0,0.0,6.36,0.00,0.00
15min,AgWx,bigpiney,439,23OCT2021:02:45:00,33.5,12.71,34.1,34.3,33.8,34.5,32.9,79,82,77,0.518,28.0,28.6,27.4,2.039,2.7,263,17,4.1,0.00004,0.00007,-157.7,.,.,0,0,0.0,6.36,0.00,0.00
15min,AgWx,bigpiney,439,23OCT2021:03:00:00,33.6,12.7,33.2,32.6,32.7,34.3,32.1,83,86,77,0.538,28.0,28.9,27.4,1.929,2.2,265,17,3.4,0.00002,0.00004,-151.0,.,.,0,0,0.0,6.36,0.00,0.00
15min,AgWx,bigpiney,439,23OCT2021:03:15:00,33.7,12.7,33.5,33.3,33.1,33.4,32.6,84,86,83,0.536,28.7,29.1,28.5,1.162,1.8,322,14,3.7,0.00001,0.00002,-151.0,.,.,0,0,0.0,6.36,0.00,0.00
15min,AgWx,bigpiney,439,23OCT2021:03:30:00,33.8,12.7,33.2,33.3,33.1,33.4,32.9,83,84,83,0.532,28.6,28.8,28.3,1.052,1.9,279,12,3.5,0.00002,0.00003,-151.0,.,.,0,0,0.0,6.36,0.00,0.00
15min,AgWx,bigpiney,439,23OCT2021:03:45:00,33.9,12.7,31.3,31.4,32.3,33.2,31.4,84,86,82,0.506,28.0,28.7,27.2,1.556,2.0,211,11,3.7,0.00002,0.00003,-151.0,.,.,0,0,0.0,6.36,0.00,0.00
15min,AgWx,bigpiney,439,23OCT2021:04:00:00,33.8,12.69,32.0,32.3,32.5,33.1,31.4,84,87,82,0.518,28.2,28.8,27.4,0,1.7,264,19,2.7,0.00001,0.00002,-151.0,.,.,0,0,0.0,6.36,0.00,0.00
15min,AgWx,bigpiney,439,23OCT2021:04:15:00,33.7,12.68,33.9,33.8,32.8,34.0,32.0,85,87,82,0.541,28.8,29.7,27.9,2.368,0.9,332,11,2.5,-0.00001,-0.00001,-151.0,.,.,0,0,0.0,6.36,0.00,0.00
15min,AgWx,bigpiney,439,23OCT2021:04:30:00,33.8,12.69,33.3,33.0,33.3,33.7,32.9,85,87,83,0.553,29.3,29.6,28.9,2.74,3.4,14,26,4.8,0.00003,0.00005,-151.0,.,.,0,0,0.0,6.36,0.00,0.00
15min,AgWx,bigpiney,439,23OCT2021:04:45:00,33.9,12.69,33.3,32.9,33.0,33.4,32.6,84,87,82,0.535,28.8,29.7,28.0,1.732,2.1,88,43,4.4,0.00002,0.00003,-151.0,.,.,0,0,0.0,6.36,0.00,0.00
15min,AgWx,bigpiney,439,23OCT2021:05:00:00,34.0,12.69,33.8,33.3,32.6,33.3,31.7,85,87,83,0.532,28.4,28.8,27.6,0,1.5,176,33,3.9,0.00001,0.00001,-151.0,.,.,0,0,0.0,6.36,0.00,0.00
15min,AgWx,bigpiney,439,23OCT2021:05:15:00,34.1,12.68,34.4,34.0,33.3,34.0,32.6,82,84,80,0.529,28.3,29.0,27.8,0,0.5,195,4.5,1.9,-0.00002,-0.00002,-151.0,.,.,0,0,0.0,6.36,0.00,0.00
15min,AgWx,bigpiney,439,23OCT2021:05:30:00,34.1,12.68,33.0,33.0,34.2,34.8,33.0,80,83,78,0.527,28.5,28.9,28.0,0.877,0.5,273,18,2.3,-0.00002,-0.00002,-151.0,.,.,0,0,0.0,6.36,0.00,0.00
15min,AgWx,bigpiney,439,23OCT2021:05:45:00,34.2,12.68,32.3,32.6,32.6,33.8,31.7,85,88,82,0.531,28.7,29.3,28.1,1.907,1.4,185,32,2.2,-0.00000,0.00000,-157.7,.,.,0,0,0.0,6.36,0.00,0.00
15min,AgWx,bigpiney,439,23OCT2021:06:00:00,34.2,12.68,32.6,32.4,32.2,32.6,31.9,87,89,85,0.541,28.9,29.2,28.3,3.924,2.9,200,9.6,4.0,0.00002,0.00003,-157.7,.,.,0,0,0.0,6.36,0.00,0.00
15min,AgWx,bigpiney,439,23OCT2021:06:15:00,34.3,12.68,33.4,33.4,32.7,33.4,32.3,87,88,85,0.545,29.1,29.6,28.8,2.455,3.9,198,38,10.5,0.00003,0.00005,-151.0,.,.,0,0,0.0,6.36,0.00,0.00
15min,AgWx,bigpiney,439,23OCT2021:06:30:00,34.4,12.68,33.8,33.8,33.4,34.0,33.1,85,86,82,0.548,29.3,29.7,29.0,4.691,2.6,241,73,5.3,0.00002,0.00004,-151.0,.,.,0,0,0.0,6.36,0.00,0.00
15min,AgWx,bigpiney,439,23OCT2021:06:45:00,34.7,12.68,35.3,35.6,34.5,35.9,33.3,82,86,76,0.543,29.4,30.0,28.7,2.696,3.6,177,47,6.4,0.00005,0.00007,-151.0,.,.,0,0,0.0,6.36,0.00,0.00
15min,AgWx,bigpiney,439,23OCT2021:07:00:00,35.0,12.68,36.9,36.3,35.5,36.3,35.1,78,80,76,0.554,29.5,29.8,28.9,3.836,2.3,230,67,4.9,0.00010,0.00017,-157.7,.,.,2,0,0.0,6.36,0.00,0.00
15min,AgWx,bigpiney,439,23OCT2021:07:15:00,35.4,12.7,36.5,37.1,35.5,37.1,34.7,80,83,75,0.562,29.9,30.7,29.2,2.126,3.5,285,91,5.9,0.00015,0.00024,-151.0,.,.,7,0,0.0,6.36,0.00,0.00
15min,AgWx,bigpiney,439,23OCT2021:07:30:00,35.8,12.72,38.2,36.9,36.5,37.5,35.5,78,81,75,0.575,30.3,31.1,29.8,5.853,3.9,118,90,8.7,0.00019,0.00030,-157.7,.,.,12,0,0.0,6.36,0.00,0.00
15min,AgWx,bigpiney,439,23OCT2021:07:45:00,36.4,12.74,37.0,37.1,37.9,38.8,37.0,74,77,70,0.576,30.2,30.6,29.8,3.244,3.9,227,95,7.1,0.00025,0.00039,-151.0,.,.,17,0,0.0,6.36,0.00,0.00
15min,AgWx,bigpiney,439,23OCT2021:08:00:00,37.0,12.83,37.8,37.3,37.6,38.9,36.8,76,80,70,0.583,30.7,31.3,30.0,0.438,2.4,224,66,6.9,0.00023,0.00032,-151.0,.,.,27,0,0.0,6.36,0.00,0.00
15min,AgWx,bigpiney,439,23OCT2021:08:15:00,37.4,13.03,37.3,37.3,37.6,38.0,37.3,79,84,74,0.628,31.6,32.8,30.4,0,1.4,195,28,4.3,0.00029,0.00035,-151.0,.,.,50,1,0.0,6.36,0.00,0.00
15min,AgWx,bigpiney,439,23OCT2021:08:30:00,37.8,14.71,38.5,38.1,37.6,38.3,37.1,83,85,80,0.629,33.0,33.5,32.3,1.776,0.5,48,4.2,1.8,0.00038,0.00041,-151.0,.,.,89,1,0.0,6.36,0.00,0.00
15min,AgWx,bigpiney,439,23OCT2021:08:45:00,38.2,14.74,38.3,38.3,38.3,38.5,38.0,80,82,78,0.635,32.6,33.5,31.8,4.121,2.0,53,14,4.2,0.00050,0.00058,-151.0,.,.,107,1,0.0,6.36,0.00,0.00